Location: Couloutre
(47.4081°N, 3.2259°E)
Time: 07:26:49
(UTC+00:00)

Resurs 01 Rocket - Pass Details

Date: 27 February 2020
Orbit: 634 x 645 km, 98.0° (Epoch: 30 March)

Event Time Altitude Azimuth Distance (km) Brightness Sun altitude
Exits shadow 20:48:56 24° 319° (NW) 1,328 3.7 -33.8°
Drops below altitude 10° 20:50:56 10° 334° (NNW) 2,042 4.8 -34.1°
Sets 20:53:14 0° 341° (NNW) 2,954 5.6 -34.5°
